• In Denmark
  • List of Countries
  • For 7 days
  • Water Temperature
  • Satellite Maps
  • Weather Map
  • Weather Widgets
  • user-avatar
    Login

    Hourly Weather Maracay

    Today, 23 September, Sunday

    Time Temperature Precipitation Wind Pressure Humidity
    00:00 +23°C° 0.6 mm 1 mps 709 mmHg 93%
    01:00 +23°C° 0.6 mm 1 mps 709 mmHg 93%
    02:00 +23°C° 0.6 mm 1 mps 709 mmHg 93%
    03:00 +23°C° 0.6 mm 1 mps 709 mmHg 93%
    04:00 +23°C° 0.6 mm 1 mps 709 mmHg 93%
    05:00 +23°C° 0.5 mm 1 mps 709 mmHg 93%
    06:00 +24°C° 0.5 mm 1 mps 709 mmHg 92%
    07:00 +24°C° 0.5 mm 1 mps 710 mmHg 91%
    08:00 +26°C° 0.4 mm 1 mps 710 mmHg 86%
    09:00 +27°C° 0.4 mm 1 mps 711 mmHg 80%
    10:00 +29°C° 0.4 mm 1 mps 711 mmHg 74%
    11:00 +29°C° 1.4 mm 1 mps 710 mmHg 76%
    12:00 +29°C° 1.4 mm 1 mps 710 mmHg 78%
    13:00 +29°C° 1.4 mm 1 mps 709 mmHg 79%
    14:00 +28°C° 1.6 mm 1 mps 709 mmHg 82%
    15:00 +27°C° 1.6 mm 1 mps 709 mmHg 85%
    16:00 +27°C° 1.6 mm 2 mps 708 mmHg 87%
    17:00 +26°C° 0.1 mm 2 mps 709 mmHg 89%
    18:00 +25°C° 0.1 mm 2 mps 709 mmHg 91%
    19:00 +24°C° 0.1 mm 1 mps 709 mmHg 93%
    20:00 +24°C° 0 mm 1 mps 710 mmHg 92%
    21:00 +24°C° 0 mm 2 mps 710 mmHg 92%
    22:00 +23°C° 0 mm 2 mps 710 mmHg 91%
    23:00 +23°C° 0.2 mm 2 mps 710 mmHg 91%

    Tomorrow, 24 September, Monday

    Time Temperature Precipitation Wind Pressure Humidity
    00:00 +23°C° 0.2 mm 2 mps 710 mmHg 91%
    01:00 +23°C° 0.2 mm 2 mps 709 mmHg 91%
    02:00 +23°C° 0.1 mm 2 mps 709 mmHg 91%
    03:00 +23°C° 0.1 mm 2 mps 709 mmHg 91%
    04:00 +21°C° 0.1 mm 2 mps 709 mmHg 91%
    05:00 +23°C° 0 mm 2 mps 710 mmHg 89%
    06:00 +24°C° 0 mm 1 mps 711 mmHg 87%
    07:00 +25°C° 0 mm 1 mps 711 mmHg 84%
    08:00 +26°C° 0.1 mm 1 mps 712 mmHg 79%
    09:00 +27°C° 0.1 mm 2 mps 712 mmHg 75%
    10:00 +28°C° 0.1 mm 2 mps 713 mmHg 70%
    11:00 +28°C° 0.3 mm 2 mps 712 mmHg 71%
    12:00 +29°C° 0.3 mm 2 mps 711 mmHg 72%
    13:00 +29°C° 0.3 mm 2 mps 711 mmHg 74%
    14:00 +28°C° 0.9 mm 2 mps 710 mmHg 78%
    15:00 +27°C° 0.9 mm 1 mps 710 mmHg 83%
    16:00 +26°C° 0.9 mm 1 mps 709 mmHg 88%
    17:00 +26°C° 0.1 mm 1 mps 710 mmHg 90%
    18:00 +25°C° 0.1 mm 1 mps 710 mmHg 91%
    19:00 +24°C° 0.1 mm 1 mps 710 mmHg 93%
    20:00 +24°C° 0.1 mm 1 mps 711 mmHg 92%
    21:00 +24°C° 0.1 mm 1 mps 711 mmHg 91%
    22:00 +24°C° 0.1 mm 1 mps 712 mmHg 90%
    23:00 +23°C° 0.3 mm 1 mps 711 mmHg 90%

    Day after tomorrow, 25 September, Tuesday

    Time Temperature Precipitation Wind Pressure Humidity
    00:00 +23°C° 0.3 mm 1 mps 711 mmHg 90%
    01:00 +23°C° 0.3 mm 1 mps 711 mmHg 89%
    02:00 +22°C° 0.1 mm 1 mps 710 mmHg 89%
    03:00 +22°C° 0.1 mm 1 mps 710 mmHg 89%
    04:00 +22°C° 0.1 mm 1 mps 710 mmHg 89%
    05:00 +23°C° 0.1 mm 1 mps 711 mmHg 87%
    06:00 +24°C° 0.1 mm 1 mps 711 mmHg 86%
    07:00 +25°C° 0.1 mm 1 mps 712 mmHg 84%
    08:00 +26°C° 0 mm 1 mps 712 mmHg 75%
    09:00 +28°C° 0 mm 1 mps 713 mmHg 67%
    10:00 +30°C° 0 mm 1 mps 713 mmHg 58%
    11:00 +30°C° 0 mm 1 mps 712 mmHg 59%
    12:00 +30°C° 0 mm 2 mps 711 mmHg 61%
    13:00 +30°C° 0 mm 2 mps 711 mmHg 62%
    14:00 +29°C° 0.6 mm 2 mps 710 mmHg 66%
    15:00 +29°C° 0.6 mm 2 mps 710 mmHg 69%
    16:00 +29°C° 0.6 mm 1 mps 709 mmHg 73%
    17:00 +27°C° 0.3 mm 1 mps 710 mmHg 78%
    18:00 +26°C° 0.3 mm 2 mps 710 mmHg 83%
    19:00 +25°C° 0.3 mm 2 mps 710 mmHg 87%
    20:00 +24°C° 0 mm 2 mps 710 mmHg 89%
    21:00 +24°C° 0 mm 2 mps 711 mmHg 90%
    22:00 +24°C° 0 mm 2 mps 711 mmHg 91%
    23:00 +24°C° 0.3 mm 2 mps 711 mmHg 92%

    26 September, Wednesday

    Time Temperature Precipitation Wind Pressure Humidity
    00:00 +24°C° 0.3 mm 2 mps 710 mmHg 93%
    01:00 +23°C° 0.3 mm 2 mps 710 mmHg 94%
    02:00 +23°C° 0 mm 2 mps 710 mmHg 94%
    03:00 +23°C° 0 mm 2 mps 710 mmHg 94%
    04:00 +23°C° 0 mm 1 mps 710 mmHg 94%
    05:00 +24°C° 0 mm 1 mps 710 mmHg 91%
    06:00 +25°C° 0 mm 1 mps 711 mmHg 87%
    07:00 +26°C° 0 mm 1 mps 711 mmHg 83%
    08:00 +28°C° 0.5 mm 1 mps 711 mmHg 76%
    09:00 +29°C° 0.5 mm 1 mps 712 mmHg 69%
    10:00 +31°C° 0.5 mm 2 mps 712 mmHg 62%
    11:00 +30°C° 1 mm 2 mps 711 mmHg 67%
    12:00 +30°C° 1 mm 2 mps 710 mmHg 72%
    13:00 +29°C° 1 mm 2 mps 709 mmHg 76%
    14:00 +29°C° 1.6 mm 2 mps 709 mmHg 80%
    15:00 +28°C° 1.6 mm 2 mps 708 mmHg 83%
    16:00 +27°C° 1.6 mm 1 mps 708 mmHg 87%
    17:00 +26°C° 0.9 mm 2 mps 708 mmHg 88%
    18:00 +25°C° 0.9 mm 2 mps 709 mmHg 90%
    19:00 +25°C° 0.9 mm 2 mps 709 mmHg 92%
    20:00 +24°C° 0.4 mm 2 mps 710 mmHg 93%
    21:00 +24°C° 0.4 mm 2 mps 710 mmHg 93%
    22:00 +24°C° 0.4 mm 2 mps 710 mmHg 94%
    23:00 +24°C° 0.1 mm 2 mps 710 mmHg 94%

    27 September, Thursday

    Time Temperature Precipitation Wind Pressure Humidity
    00:00 +24°C° 0.1 mm 2 mps 709 mmHg 94%
    01:00 +24°C° 0.1 mm 2 mps 709 mmHg 94%
    02:00 +24°C° 0.1 mm 2 mps 709 mmHg 94%
    03:00 +23°C° 0.1 mm 2 mps 709 mmHg 94%
    04:00 +23°C° 0.1 mm 2 mps 709 mmHg 93%
    05:00 +24°C° 0.2 mm 1 mps 710 mmHg 91%
    06:00 +25°C° 0.2 mm 1 mps 710 mmHg 88%
    07:00 +25°C° 0.2 mm 1 mps 711 mmHg 85%
    08:00 +27°C° 0 mm 1 mps 711 mmHg 75%
    09:00 +29°C° 0 mm 1 mps 711 mmHg 65%
    10:00 +31°C° 0 mm 2 mps 712 mmHg 55%
    11:00 +31°C° 0 mm 2 mps 711 mmHg 55%
    12:00 +32°C° 0 mm 2 mps 710 mmHg 55%
    13:00 +32°C° 0 mm 2 mps 709 mmHg 55%
    14:00 +31°C° 0.2 mm 2 mps 709 mmHg 61%
    15:00 +30°C° 0.2 mm 2 mps 709 mmHg 66%
    16:00 +29°C° 0.2 mm 2 mps 708 mmHg 72%
    17:00 +28°C° 0.3 mm 2 mps 709 mmHg 77%
    18:00 +26°C° 0.3 mm 2 mps 709 mmHg 82%
    19:00 +25°C° 0.3 mm 2 mps 710 mmHg 87%
    20:00 +25°C° 0 mm 2 mps 710 mmHg 88%
    21:00 +25°C° 0 mm 2 mps 710 mmHg 90%
    22:00 +24°C° 0 mm 2 mps 710 mmHg 91%
    23:00 +24°C° 0.4 mm 1 mps 710 mmHg 92%

    28 September, Friday

    Time Temperature Precipitation Wind Pressure Humidity
    00:00 +24°C° 0.4 mm 1 mps 710 mmHg 94%
    01:00 +24°C° 0.4 mm 1 mps 709 mmHg 95%
    02:00 +24°C° 1.1 mm 1 mps 709 mmHg 95%
    03:00 +24°C° 1.1 mm 1 mps 709 mmHg 95%
    04:00 +23°C° 1.1 mm 1 mps 709 mmHg 95%
    05:00 +24°C° 1 mm 1 mps 710 mmHg 91%
    06:00 +25°C° 1 mm 1 mps 710 mmHg 88%
    07:00 +26°C° 1 mm 1 mps 711 mmHg 85%
    08:00 +27°C° 0.8 mm 1 mps 711 mmHg 79%
    09:00 +29°C° 0.8 mm 1 mps 711 mmHg 73%
    10:00 +30°C° 0.8 mm 1 mps 712 mmHg 67%
    11:00 +30°C° 1.1 mm 1 mps 711 mmHg 70%
    12:00 +30°C° 1.1 mm 2 mps 710 mmHg 73%
    13:00 +30°C° 1.1 mm 2 mps 709 mmHg 77%
    14:00 +29°C° 1.7 mm 1 mps 709 mmHg 80%
    15:00 +28°C° 1.7 mm 1 mps 709 mmHg 83%
    16:00 +28°C° 1.7 mm 1 mps 708 mmHg 86%
    17:00 +27°C° 2 mm 1 mps 709 mmHg 88%
    18:00 +26°C° 2 mm 1 mps 709 mmHg 90%
    19:00 +25°C° 2 mm 1 mps 710 mmHg 93%
    20:00 +25°C° 2.1 mm 1 mps 710 mmHg 93%
    21:00 +24°C° 2.1 mm 1 mps 710 mmHg 94%
    22:00 +24°C° 2.1 mm 1 mps 710 mmHg 94%
    23:00 +24°C° 1.9 mm 1 mps 710 mmHg 94%
    Show more